軌道要素
Epoch 2013 Nov. 4.0 TT = JDT 2456600.5
T 2013 Nov. 18.73528 TT MPC
q 2.4189645 (2000.0) P Q
n 0.02386204 Peri. 143.14758 +0.96844758 +0.13338111
a 11.9489848 Node 211.24785 -0.14594005 +0.98825931
e 0.7975590 Incl. 23.94309 +0.20201682 +0.07451855
P 41.3
From 131 observations 2013 Oct. 22-Dec. 24, mean residual 0".5.
|